Regional Weather Roundup
Issued by NWS

Home | Current Version | Previous Version | Graphics & Text | Print | Product List | Glossary On
Versions: 1 2 3 4 5 6 7 8 9 10 11 12 13 14 15 16 17 18 19 20 21 22 23 24 25 26 27 28 29 30 31 32 33 34 35 36 37 38 39 40 41 42 43 44 45 46 47 48 49 50
505
ASUS45 KPSR 290510
RWRAZ

ARIZONA HOURLY REGIONAL WEATHER ROUNDUP
NATIONAL WEATHER SERVICE PHOENIX AZ
1000 PM MST FRI APR 28 2017

NOTE: FAIR INDICATES FEW OR NO CLOUDS BELOW 12,000 FEET WITH NO
SIGNIFICANT WEATHER AND/OR OBSTRUCTIONS TO VISIBILITY.

AZZ001>003-036-290600-
NORTHWEST ARIZONA

CITY           SKY/WX    TMP DP  RH WIND       PRES   REMARKS
BULLHEAD CITY  CLEAR     68  16  13 N24G31    29.86R
KINGMAN        CLEAR     47  32  56 N7        29.93R
$$

AZZ004>008-015-016-018-290600-
NORTH CENTRAL ARIZONA

CITY           SKY/WX    TMP DP  RH WIND       PRES   REMARKS
GRAND CANYON   CLEAR     29  14  53 NW3       29.92R
WILLIAMS       CLEAR     30  10  43 NW8       29.91S WCI  23
PRESCOTT       CLEAR     40  10  29 NW6       29.90R
FLAGSTAFF      PTCLDY    34   9  35 MISG      29.88R
PAYSON         CLOUDY    46  16  29 N8G20     29.88S
PAGE           PTCLDY    48  20  32 NW7       29.88R
$$

AZZ009>014-017-290600-
NORTHEAST ARIZONA

CITY           SKY/WX    TMP DP  RH WIND       PRES   REMARKS
WINSLOW        MOCLDY    45   7  21 NW12      29.86R
SAINT JOHNS    CLOUDY    36  33  89 S10       29.84S WCI  28
WINDOW ROCK    MOCLDY    33  20  58 CALM      29.84S
SHOW LOW       MOCLDY    32  23  69 NE3       29.86S
$$

AZZ540-542>544-546-548-290600-
GREATER PHOENIX AREA

CITY           SKY/WX    TMP DP  RH WIND       PRES   REMARKS
PHOENIX        CLEAR     70  10  10 N21G26    29.75R
BUCKEYE        CLEAR     66   3   8 N12       29.79R
LUKE AFB       CLEAR     66  17  15 NW8       29.77R
DEER VALLEY    CLEAR     66  10  11 N21G28    29.77R
SCOTTSDALE     CLEAR     67  10  11 N8G18     29.78R
MESA-GATEWAY   CLEAR     66  12  12 NW7       29.77R
$$

AZZ539-553-290600-
SOUTHWEST MARICOPA COUNTY AND PINAL COUNTY

CITY           SKY/WX    TMP DP  RH WIND       PRES   REMARKS
CASA GRANDE    CLEAR     69   3   7 NW17G26   29.77R
GILA BEND      FAIR      70  -4   5 NW9       29.77R
$$

AZZ503-504-507>509-290600-
SOUTHEAST ARIZONA

CITY           SKY/WX    TMP DP  RH WIND       PRES   REMARKS
TUCSON         PTCLDY    67   2   7 NW10G22   29.79R
DAVIS-MONTHAN  CLEAR     65   2   8 NW17G28   29.77R
NOGALES        MOCLDY    64  44  48 SW10      29.80R
SIERRA VISTA   PTCLDY    62  38  41 W21G29    29.81R
DOUGLAS        MOCLDY    66  42  41 SW22G30   29.77R
SAFFORD        PTCLDY    63  -3   7 W26G37    29.67R
$$

AZZ532-290600-
SOUTHWEST ARIZONA

CITY           SKY/WX    TMP DP  RH WIND       PRES   REMARKS
YUMA           PTCLDY    74  12   9 NE10      29.76R
$$

CAZ041-043-047-048-061-525>527-560>570-290600-
SOUTHERN CALIFORNIA

CITY           SKY/WX    TMP DP  RH WIND       PRES   REMARKS
DOWNTOWN L.A.  CLEAR     74  25  16 VRB5      29.79R
L.A. AIRPORT   PTCLDY    72  28  19 N12G22    29.79S
SAN DIEGO      MOCLDY    67  57  70 S6        29.83R
BURBANK        CLEAR     69  24  18 N26       29.83R
ONTARIO        PTCLDY    73  17  12 NE16      29.82R
RIVERSIDE      CLEAR     71  28  20 N8        29.82R
PALM SPRINGS   CLEAR     78   6   6 N12G23    29.85R
EL CENTRO NAS  CLEAR     67  18  15 N10       29.78R
IMPERIAL       CLEAR     73  20  13 N6        29.76R
BLYTHE         CLEAR     72   5   7 N14       29.81R
NEEDLES        CLEAR     68  15  13 N15       29.87R
$$

NVZ020-UTZ003-290600-
SOUTHERN NEVADA-UTAH

CITY           SKY/WX    TMP DP  RH WIND       PRES   REMARKS
LAS VEGAS      PTCLDY    62  12  14 N20       29.94R
SALT LAKE CITY CLOUDY    41  36  82 CALM      30.03R
$$

NMZ009-TXZ055-290600-
NEW MEXICO-WEST TEXAS

CITY           SKY/WX    TMP DP  RH WIND       PRES   REMARKS
ALBUQUERQUE    CLOUDY    39  33  79 NW13      29.87R WCI  31
EL PASO        MOCLDY    74  40  29 SW22G31   29.65R
$$


........................KEY........................
SKY/WX - SKY CONDITION/WEATHER
TMP    - TEMPERATURE IN FAHRENHEIT
DP     - DEW POINT IN FAHRENHEIT
RH     - RELATIVE HUMIDITY IN PERCENT
WIND   - DIRECTION AND SPEED IN MILES PER HOUR (MPH)
VRB    - VARIABLE WIND DIRECTION
PRES   - MEAN SEA LEVEL PRESSURE IN INCHES OF MERCURY
         F - FALLING PRESSURE   R - RISING PRESSURE
         S - STEADY PRESSURE
VSB    - VISIBILITY IN MILES
HX     - HEAT INDEX IN FAHRENHEIT
WCI    - WIND CHILL INDEX IN FAHRENHEIT
TC     - TEMPERATURE IN CELSIUS WHICH IS ALSO KNOWN AS
         TEMPERATURE IN CENTIGRADE
AFB    - AIR FORCE BASE
         LUKE AFB IS LUKE AIR FORCE BASE
         DAVIS-MONTHAN IS DAVIS-MONTHAN AIR FORCE BASE
NAS    - NAVAL AIR STATION
         EL CENTRO NAS IS EL CENTRO NAVAL AIR STATION
N/A    - NOT AVAILABLE





USA.gov is the U.S. government's official web portal to all federal, state and local government web resources and services.